Location: Unspecified
(0.0000°N, 0.0000°E)
Time: 19:40:58
(UTC+00:00)

CZ-3 Stage 3 - Visible Passes

Search period start: 19 May 2019 00:00
Search period end: 29 May 2019 00:00
Orbit: 502 x 34690 km, 30.5° (Epoch: 17 May)

Date Brightness Start Highest point End Pass type
(mag) Time Alt. Az. Time Alt. Az. Time Alt. Az.
19 May 6.4 00:13:17 16° NNW 00:21:14 23° NNE 09:36:18 10° SE visible
21 May 6.9 03:41:12 10° NW 07:14:13 88° NNW 13:14:55 10° SE visible
22 May 6.4 00:02:39 15° NNW 00:11:29 23° NNE 09:26:01 10° SE visible
22 May 4.6 20:19:37 10° W 20:20:27 15° WNW 20:20:27 15° WNW visible
24 May 6.9 03:31:05 10° NW 07:00:39 89° NNW 13:04:57 10° SE visible
24 May 6.4 23:51:51 12° NNW 00:01:43 22° NNE 09:15:45 10° SE visible
25 May 4.2 20:09:42 10° W 20:11:31 19° NW 20:11:31 19° NW visible
27 May 6.9 03:20:58 10° NW 06:47:00 90° NNW 12:55:00 10° SE visible
27 May 6.5 23:41:14 10° NNW 23:51:57 22° NNE 09:05:30 10° SE visible
28 May 4.2 19:59:48 10° WNW 20:02:05 18° NNW 20:02:56 17° N visible
